Total_Precipitation_Accumulation
1.66 1.68 1.68 1.54 1.43 1.38 1.42 1.63 1.95 1.72 1.11 0.84 0.88 0.94 1.02 1.12 1.31 1.19 1.11 1.21 1.28 1.35 1.46 1.55 1.64 1.74 2.01 2.62 3.59 4.94 5.57 4.87 3.97 3.74 3.77 3.98 4.32 4.75
1.53 1.61 1.65 1.58 1.49 1.42 1.46 1.48 1.60 1.81 1.51 0.91 0.83 0.88 1.01 1.08 1.21 1.10 1.12 1.29 1.28 1.32 1.40 1.47 1.55 1.62 1.76 2.04 2.57 3.42 4.60 5.26 4.86 4.23 4.01 4.19 4.33 4.53
1.39 1.43 1.46 1.48 1.51 1.44 1.43 1.44 1.41 1.48 1.51 0.97 0.81 0.85 1.04 1.13 1.12 1.06 1.08 1.13 1.15 1.30 1.36 1.39 1.47 1.56 1.75 1.94 2.23 2.67 3.33 4.29 4.95 4.82 4.44 4.30 4.28 4.29
1.31 1.31 1.31 1.35 1.43 1.38 1.35 1.32 1.27 1.23 1.29 1.14 0.89 0.87 0.95 1.02 1.12 1.20 1.18 1.15 1.09 1.22 1.26 1.36 1.50 1.57 1.68 1.88 2.12 2.41 2.77 3.27 3.96 4.49 4.55 4.32 4.15 4.18
1.28 1.28 1.24 1.31 1.38 1.34 1.33 1.27 1.18 1.11 1.12 1.16 1.00 0.90 0.94 0.99 1.16 1.31 1.31 1.31 1.23 1.25 1.28 1.36 1.47 1.59 1.68 1.79 2.02 2.25 2.43 2.59 2.96 3.69 4.24 4.18 4.06 3.99
1.22 1.19 1.21 1.33 1.36 1.38 1.43 1.33 1.26 1.28 1.28 1.33 1.21 1.07 1.08 1.09 1.28 1.52 1.60 1.55 1.47 1.31 1.36 1.41 1.52 1.66 1.70 1.70 1.77 1.90 2.05 2.32 2.63 3.03 3.63 4.00 3.89 3.83
1.18 1.16 1.22 1.37 1.43 1.61 1.74 1.62 1.59 1.69 1.66 1.65 1.54 1.44 1.36 1.38 1.46 1.51 1.68 1.70 1.68 1.50 1.39 1.32 1.36 1.39 1.50 1.62 1.70 1.76 1.87 2.06 2.33 2.64 3.02 3.47 3.77 3.83
1.21 1.16 1.16 1.30 1.34 1.47 1.67 1.76 1.82 1.95 2.03 2.00 1.89 1.74 1.48 1.39 1.42 1.58 1.68 1.87 1.95 1.61 1.51 1.47 1.41 1.51 1.47 1.48 1.70 1.73 1.81 1.98 2.17 2.41 2.70 2.97 3.34 3.73
1.19 1.18 1.18 1.23 1.30 1.28 1.42 1.49 1.53 1.69 1.92 2.04 2.09 1.69 1.45 1.39 1.62 1.83 1.80 1.88 1.85 1.74 1.85 1.81 1.52 1.56 1.50 1.61 1.83 1.75 1.76 1.87 2.02 2.17 2.40 2.65 2.91 3.24
1.17 1.15 1.16 1.19 1.29 1.50 1.47 1.43 1.34 1.36 1.56 1.77 2.03 1.85 1.65 1.68 2.02 2.35 2.44 2.31 1.90 1.70 1.86 2.08 1.64 1.54 1.58 1.69 1.87 1.80 1.71 1.73 1.84 1.99 2.14 2.31 2.50 2.78
1.15 1.13 1.16 1.17 1.44 1.72 1.62 1.47 1.31 1.23 1.34 1.67 1.98 2.11 2.16 2.28 2.51 2.82 2.98 2.80 2.33 1.80 1.76 2.03 1.84 1.65 1.80 2.00 2.07 2.01 1.75 1.68 1.75 1.87 1.93 1.98 2.16 2.45
1.19 1.15 1.30 1.40 1.59 1.73 1.58 1.53 1.62 1.41 1.26 1.32 1.42 1.54 1.61 1.77 2.17 2.44 2.75 2.85 2.48 2.25 1.88 1.98 2.09 2.10 2.40 2.27 2.12 1.96 1.74 1.68 1.70 1.77 1.81 1.80 1.92 1.95
1.25 1.21 1.19 1.45 1.55 1.63 1.66 1.61 1.85 1.73 1.45 1.46 1.44 1.40 1.39 1.50 1.69 1.99 2.40 2.76 2.79 2.47 2.02 2.30 2.60 2.40 2.51 2.37 2.25 2.14 1.78 1.55 1.54 1.67 1.80 1.83 1.85 1.81
1.20 1.08 1.14 1.39 1.47 1.58 1.58 1.68 1.82 1.74 1.52 1.47 1.40 1.35 1.37 1.43 1.51 1.66 1.99 2.28 2.40 2.28 1.96 2.31 2.92 2.67 2.55 2.26 2.19 2.27 2.02 1.72 1.54 1.54 1.64 1.90 1.87 1.79
1.19 1.29 1.36 1.47 1.47 1.40 1.47 1.58 1.57 1.49 1.57 1.56 1.41 1.31 1.32 1.45 1.52 1.57 1.72 2.00 2.17 2.13 2.06 2.14 2.57 2.68 2.69 2.48 2.11 2.10 2.18 2.07 1.76 1.68 1.66 1.68 1.59 1.53
1.39 1.44 1.51 1.49 1.39 1.30 1.34 1.34 1.30 1.40 1.54 1.53 1.39 1.26 1.25 1.37 1.54 1.64 1.74 1.90 2.12 2.15 2.10 2.16 2.43 2.83 2.82 2.32 2.12 2.06 1.97 2.17 2.06 1.86 1.72 1.65 1.50 1.30
1.57 1.63 1.55 1.46 1.43 1.31 1.21 1.15 1.19 1.36 1.47 1.36 1.33 1.31 1.28 1.33 1.41 1.54 1.76 1.91 2.07 2.10 2.15 2.29 2.44 2.66 2.77 2.68 2.51 2.12 1.86 1.82 1.91 1.90 1.84 1.83 1.71 1.45
1.76 1.68 1.45 1.30 1.26 1.22 1.20 1.17 1.12 1.16 1.21 1.28 1.32 1.32 1.32 1.36 1.38 1.39 1.57 1.83 1.99 2.00 2.06 2.21 2.39 2.62 2.81 2.92 2.75 2.32 1.96 1.81 1.88 1.95 1.91 1.97 1.99 1.73
1.65 1.44 1.26 1.18 1.14 1.12 1.11 1.10 1.07 1.00 1.04 1.15 1.20 1.25 1.31 1.36 1.39 1.40 1.45 1.62 1.81 1.94 2.05 2.16 2.33 2.59 2.75 2.82 2.88 2.55 2.25 1.98 1.94 2.13 2.13 2.04 2.03 1.87
1.38 1.29 1.21 1.12 1.09 1.12 1.13 1.12 1.08 1.05 1.08 1.11 1.13 1.15 1.24 1.36 1.38 1.36 1.38 1.52 1.69 1.83 1.93 2.04 2.27 2.57 2.81 2.70 2.74 2.72 2.63 2.34 2.12 2.23 2.26 2.15 2.07 2.03
1.21 1.19 1.16 1.14 1.13 1.13 1.16 1.16 1.15 1.13 1.10 1.11 1.11 1.10 1.13 1.24 1.28 1.24 1.28 1.42 1.60 1.73 1.82 1.83 1.99 2.28 2.53 2.56 2.49 2.45 2.62 2.70 2.40 2.34 2.36 2.37 2.31 2.23
1.12 1.16 1.16 1.15 1.16 1.17 1.18 1.19 1.17 1.12 1.08 1.09 1.07 1.06 1.08 1.14 1.18 1.19 1.26 1.35 1.42 1.54 1.66 1.71 1.81 2.09 2.43 2.65 2.55 2.36 2.44 2.61 2.63 2.48 2.44 2.51 2.68 2.73
1.22 1.20 1.18 1.17 1.16 1.18 1.20 1.17 1.14 1.07 1.01 1.01 1.01 1.01 1.06 1.12 1.11 1.15 1.20 1.27 1.35 1.42 1.53 1.68 1.79 1.97 2.24 2.44 2.55 2.45 2.33 2.36 2.45 2.50 2.67 2.52 2.16 1.98